| time (UTC) | temp F | wind direction | speed MPH | gust MPH | rain 1hr in | rain 24hr in | rain mn in | humidity % | barometer mb |
| 20260503220359 | 74 | 293 | 7.0 | 12.0 | 0.00 | 0.00 | 0.00 | 45 | 1015.7 |
| 20260503215859 | 73 | 284 | 8.0 | 12.0 | 0.00 | 0.00 | 0.00 | 47 | 1015.7 |
| 20260503215358 | 73 | 282 | 7.0 | 12.0 | 0.00 | 0.00 | 0.00 | 47 | 1015.7 |
| 20260503214858 | 73 | 304 | 6.0 | 12.0 | 0.00 | 0.00 | 0.00 | 46 | 1015.8 |
| 20260503214359 | 73 | 263 | 5.0 | 11.0 | 0.00 | 0.00 | 0.00 | 47 | 1015.8 |
| 20260503213858 | 72 | 298 | 6.0 | 11.0 | 0.00 | 0.00 | 0.00 | 50 | 1016.0 |
| 20260503213358 | 72 | 319 | 7.0 | 13.0 | 0.00 | 0.00 | 0.00 | 53 | 1016.0 |
| 20260503212854 | 71 | 290 | 7.0 | 13.0 | 0.00 | 0.00 | 0.00 | 52 | 1016.1 |
| 20260503212355 | 71 | 291 | 7.0 | 13.0 | 0.00 | 0.00 | 0.00 | 52 | 1016.0 |
| 20260503211854 | 71 | 306 | 7.0 | 10.0 | 0.00 | 0.00 | 0.00 | 54 | 1016.1 |
| 20260503211354 | 71 | 312 | 8.0 | 13.0 | 0.00 | 0.00 | 0.00 | 56 | 1016.2 |
| 20260503210855 | 71 | 340 | 8.0 | 15.0 | 0.00 | 0.00 | 0.00 | 55 | 1016.1 |
| 20260503210354 | 70 | 314 | 9.0 | 16.0 | 0.00 | 0.00 | 0.00 | 55 | 1016.2 |
| 20260503205855 | 70 | 296 | 10.0 | 16.0 | 0.00 | 0.00 | 0.00 | 55 | 1016.3 |
| 20260503204855 | 70 | 281 | 11.0 | 17.0 | 0.00 | 0.00 | 0.00 | 55 | 1016.3 |
| 20260503203851 | 70 | 316 | 9.0 | 17.0 | 0.00 | 0.00 | 0.00 | 54 | 1016.4 |
| 20260503203350 | 70 | 307 | 9.0 | 17.0 | 0.00 | 0.00 | 0.00 | 53 | 1016.5 |
| 20260503202850 | 70 | 281 | 10.0 | 16.0 | 0.00 | 0.00 | 0.00 | 53 | 1016.3 |
| 20260503202350 | 70 | 314 | 10.0 | 16.0 | 0.00 | 0.00 | 0.00 | 53 | 1016.4 |
| 20260503201852 | 70 | 301 | 9.0 | 16.0 | 0.00 | 0.00 | 0.00 | 52 | 1016.5 |
| 20260503201350 | 70 | 304 | 9.0 | 15.0 | 0.00 | 0.00 | 0.00 | 53 | 1016.6 |
| 20260503200350 | 69 | 2 | 9.0 | 14.0 | 0.00 | 0.00 | 0.00 | 53 | 1016.7 |
| 20260503195850 | 69 | 340 | 8.0 | 12.0 | 0.00 | 0.00 | 0.00 | 57 | 1016.8 |
| 20260503194850 | 68 | 294 | 8.0 | 12.0 | 0.00 | 0.00 | 0.00 | 57 | 1016.8 |
| 20260503194350 | 68 | 321 | 9.0 | 12.0 | 0.00 | 0.00 | 0.00 | 60 | 1017.0 |
| 20260503192350 | 68 | 309 | 7.0 | 12.0 | 0.00 | 0.00 | 0.00 | 58 | 1017.3 |
| 20260503191850 | 68 | 317 | 7.0 | 11.0 | 0.00 | 0.00 | 0.00 | 58 | 1017.3 |
| 20260503191351 | 68 | 325 | 8.0 | 13.0 | 0.00 | 0.00 | 0.00 | 60 | 1017.3 |
| 20260503190851 | 67 | 303 | 8.0 | 13.0 | 0.00 | 0.00 | 0.00 | 58 | 1017.2 |
| 20260503190350 | 68 | 302 | 8.0 | 12.0 | 0.00 | 0.00 | 0.00 | 59 | 1017.3 |
| 20260503185348 | 67 | 314 | 8.0 | 14.0 | 0.00 | 0.00 | 0.00 | 60 | 1017.4 |
| 20260503184849 | 67 | 283 | 8.0 | 13.0 | 0.00 | 0.00 | 0.00 | 59 | 1017.4 |
| 20260503184350 | 67 | 273 | 9.0 | 14.0 | 0.00 | 0.00 | 0.00 | 61 | 1017.3 |
| 20260503183847 | 67 | 281 | 9.0 | 16.0 | 0.00 | 0.00 | 0.00 | 62 | 1017.4 |
| 20260503183347 | 66 | 304 | 9.0 | 16.0 | 0.00 | 0.00 | 0.00 | 62 | 1017.5 |
| 20260503182347 | 67 | 327 | 6.0 | 11.0 | 0.00 | 0.00 | 0.00 | 61 | 1017.7 |
| 20260503181846 | 67 | 278 | 6.0 | 13.0 | 0.00 | 0.00 | 0.00 | 62 | 1017.8 |
| 20260503181347 | 66 | 293 | 8.0 | 13.0 | 0.00 | 0.00 | 0.00 | 62 | 1017.7 |
| 20260503180839 | 66 | 285 | 7.0 | 13.0 | 0.00 | 0.00 | 0.00 | 62 | 1018.0 |
| 20260503180331 | 66 | 307 | 6.0 | 13.0 | 0.00 | 0.00 | 0.00 | 62 | 1017.9 |
| 20260503175830 | 66 | 359 | 6.0 | 13.0 | 0.00 | 0.00 | 0.00 | 65 | 1018.0 |
| 20260503175333 | 66 | 279 | 7.0 | 12.0 | 0.00 | 0.00 | 0.00 | 64 | 1017.9 |
| 20260503174827 | 65 | 294 | 8.0 | 13.0 | 0.00 | 0.00 | 0.00 | 65 | 1018.0 |
| 20260503173829 | 65 | 296 | 9.0 | 16.0 | 0.00 | 0.00 | 0.00 | 67 | 1018.1 |
| 20260503172828 | 64 | 311 | 8.0 | 14.0 | 0.00 | 0.00 | 0.00 | 67 | 1018.1 |
| 20260503172329 | 64 | 293 | 8.0 | 14.0 | 0.00 | 0.00 | 0.00 | 67 | 1018.0 |
| 20260503171826 | 64 | 305 | 8.0 | 14.0 | 0.00 | 0.00 | 0.00 | 66 | 1018.1 |
| 20260503171326 | 65 | 299 | 6.0 | 13.0 | 0.00 | 0.00 | 0.00 | 66 | 1018.2 |
| 20260503170826 | 66 | 280 | 6.0 | 12.0 | 0.00 | 0.00 | 0.00 | 65 | 1018.2 |
| 20260503170326 | 65 | 287 | 7.0 | 12.0 | 0.00 | 0.00 | 0.00 | 66 | 1018.1 |
| 20260503150731 | 62 | 293 | 7.0 | 13.0 | 0.00 | 0.00 | 0.00 | 69 | 1018.4 |
| 20260503150226 | 62 | 288 | 7.0 | 13.0 | 0.00 | 0.00 | 0.00 | 69 | 1018.4 |
| 20260503090339 | 56 | 261 | 0.0 | 2.0 | 0.00 | 0.00 | 0.00 | 80 | 1018.0 |
| 20260503081331 | 55 | 292 | 4.0 | 7.0 | 0.00 | 0.00 | 0.00 | 81 | 1018.1 |
| 20260503080831 | 55 | 316 | 4.0 | 9.0 | 0.00 | 0.00 | 0.00 | 82 | 1018.1 |
| 20260503080331 | 55 | 298 | 4.0 | 9.0 | 0.00 | 0.00 | 0.00 | 83 | 1017.9 |
| 20260503072834 | 57 | 23 | 2.0 | 4.0 | 0.00 | 0.00 | 0.00 | 78 | 1017.8 |
| 20260503072331 | 56 | 323 | 1.0 | 4.0 | 0.00 | 0.00 | 0.00 | 79 | 1017.8 |
| 20260503071832 | 56 | 15 | 0.0 | 2.0 | 0.00 | 0.00 | 0.00 | 79 | 1017.8 |
| 20260503071331 | 56 | 15 | 1.0 | 5.0 | 0.00 | 0.00 | 0.00 | 79 | 1017.8 |
| 20260503070832 | 56 | 16 | 1.0 | 5.0 | 0.00 | 0.00 | 0.00 | 79 | 1017.9 |
| 20260503070332 | 57 | 133 | 0.0 | 2.0 | 0.00 | 0.00 | 0.00 | 78 | 1017.8 |
| 20260503060321 | 56 | 319 | 1.0 | 4.0 | 0.00 | 0.00 | 0.00 | 77 | 1017.6 |
| 20260503054819 | 58 | 10 | 3.0 | 5.0 | 0.00 | 0.00 | 0.00 | 73 | 1017.6 |
| 20260503054317 | 59 | 4 | 4.0 | 6.0 | 0.00 | 0.00 | 0.00 | 73 | 1017.5 |
| 20260503053814 | 59 | 358 | 5.0 | 7.0 | 0.00 | 0.00 | 0.00 | 73 | 1017.6 |
| 20260503053316 | 58 | 311 | 6.0 | 8.0 | 0.00 | 0.00 | 0.00 | 75 | 1017.6 |
| 20260503052315 | 57 | 323 | 6.0 | 7.0 | 0.00 | 0.00 | 0.00 | 77 | 1017.6 |
| 20260503051814 | 56 | 328 | 6.0 | 8.0 | 0.00 | 0.00 | 0.00 | 78 | 1017.6 |
| 20260503051315 | 56 | 317 | 6.0 | 8.0 | 0.00 | 0.00 | 0.00 | 79 | 1017.6 |
| 20260503050815 | 56 | 323 | 5.0 | 7.0 | 0.00 | 0.00 | 0.00 | 78 | 1017.6 |
| 20260503050316 | 57 | 333 | 5.0 | 6.0 | 0.00 | 0.00 | 0.00 | 77 | 1017.5 |
| 20260503045314 | 60 | 338 | 4.0 | 6.0 | 0.00 | 0.00 | 0.00 | 70 | 1017.5 |
| 20260503044814 | 62 | 353 | 3.0 | 6.0 | 0.00 | 0.00 | 0.00 | 65 | 1017.4 |
| 20260503044314 | 64 | 6 | 2.0 | 5.0 | 0.00 | 0.00 | 0.00 | 62 | 1017.4 |
| 20260503043312 | 65 | 273 | 3.0 | 7.0 | 0.00 | 0.00 | 0.00 | 59 | 1017.2 |
| 20260503042812 | 61 | 281 | 3.0 | 6.0 | 0.00 | 0.00 | 0.00 | 66 | 1017.3 |
| 20260503041810 | 57 | 323 | 4.0 | 7.0 | 0.00 | 0.00 | 0.00 | 76 | 1017.3 |
| 20260503040308 | 61 | 338 | 4.0 | 8.0 | 0.00 | 0.00 | 0.00 | 69 | 1017.2 |
| 20260503035807 | 65 | 314 | 3.0 | 8.0 | 0.00 | 0.00 | 0.00 | 60 | 1017.3 |
| 20260503035307 | 66 | 335 | 3.0 | 6.0 | 0.00 | 0.00 | 0.00 | 56 | 1017.1 |
| 20260503034808 | 68 | 277 | 4.0 | 7.0 | 0.00 | 0.00 | 0.00 | 52 | 1017.0 |
| 20260503034304 | 68 | 286 | 4.0 | 7.0 | 0.00 | 0.00 | 0.00 | 52 | 1016.8 |
| 20260503033806 | 69 | 275 | 4.0 | 7.0 | 0.00 | 0.00 | 0.00 | 52 | 1016.8 |
| 20260503033305 | 68 | 252 | 3.0 | 7.0 | 0.00 | 0.00 | 0.00 | 53 | 1016.8 |
| 20260503031805 | 67 | 283 | 3.0 | 8.0 | 0.00 | 0.00 | 0.00 | 57 | 1016.7 |
| 20260503031303 | 65 | 290 | 2.0 | 7.0 | 0.00 | 0.00 | 0.00 | 63 | 1016.7 |
| 20260503030808 | 63 | 345 | 3.0 | 6.0 | 0.00 | 0.00 | 0.00 | 67 | 1016.7 |
| 20260503030259 | 62 | 323 | 3.0 | 6.0 | 0.00 | 0.00 | 0.00 | 67 | 1016.7 |
| 20260503025756 | 63 | 306 | 3.0 | 5.0 | 0.00 | 0.00 | 0.00 | 64 | 1016.8 |
| 20260503025257 | 64 | 347 | 2.0 | 5.0 | 0.00 | 0.00 | 0.00 | 63 | 1016.8 |
| 20260503024756 | 66 | 345 | 1.0 | 3.0 | 0.00 | 0.00 | 0.00 | 58 | 1016.8 |
| 20260503023253 | 72 | 271 | 3.0 | 6.0 | 0.00 | 0.00 | 0.00 | 48 | 1016.6 |
| 20260503022746 | 72 | 274 | 3.0 | 6.0 | 0.00 | 0.00 | 0.00 | 47 | 1016.8 |
| 20260503022240 | 72 | 292 | 3.0 | 8.0 | 0.00 | 0.00 | 0.00 | 48 | 1016.8 |
| 20260503021734 | 72 | 277 | 4.0 | 9.0 | 0.00 | 0.00 | 0.00 | 48 | 1016.9 |
| 20260503021228 | 72 | 278 | 5.0 | 9.0 | 0.00 | 0.00 | 0.00 | 48 | 1016.7 |
| 20260503020722 | 72 | 269 | 4.0 | 9.0 | 0.00 | 0.00 | 0.00 | 47 | 1016.8 |
| 20260503020221 | 73 | 293 | 3.0 | 9.0 | 0.00 | 0.00 | 0.00 | 47 | 1016.8 |
| 20260503015720 | 72 | 262 | 5.0 | 9.0 | 0.00 | 0.00 | 0.00 | 48 | 1017.0 |
| 20260503015220 | 72 | 283 | 6.0 | 12.0 | 0.00 | 0.00 | 0.00 | 48 | 1016.9 |
| 20260503014720 | 72 | 281 | 6.0 | 12.0 | 0.00 | 0.00 | 0.00 | 48 | 1016.9 |
| 20260503014221 | 72 | 285 | 5.0 | 11.0 | 0.00 | 0.00 | 0.00 | 48 | 1017.0 |
| 20260503013720 | 72 | 277 | 6.0 | 11.0 | 0.00 | 0.00 | 0.00 | 48 | 1016.9 |
| 20260503013220 | 72 | 276 | 6.0 | 12.0 | 0.00 | 0.00 | 0.00 | 48 | 1017.0 |
| 20260503012721 | 72 | 290 | 5.0 | 12.0 | 0.00 | 0.00 | 0.00 | 49 | 1017.0 |
| 20260503012221 | 72 | 276 | 5.0 | 11.0 | 0.00 | 0.00 | 0.00 | 49 | 1017.1 |
| 20260503011720 | 72 | 307 | 6.0 | 14.0 | 0.00 | 0.00 | 0.00 | 49 | 1017.1 |
| 20260503011221 | 72 | 260 | 7.0 | 14.0 | 0.00 | 0.00 | 0.00 | 50 | 1017.2 |
| 20260503010720 | 72 | 287 | 6.0 | 10.0 | 0.00 | 0.00 | 0.00 | 50 | 1017.2 |
| 20260503005720 | 72 | 278 | 5.0 | 10.0 | 0.00 | 0.00 | 0.00 | 49 | 1017.2 |
| 20260503005220 | 72 | 248 | 5.0 | 12.0 | 0.00 | 0.00 | 0.00 | 50 | 1017.3 |
| 20260503004721 | 72 | 288 | 7.0 | 14.0 | 0.00 | 0.00 | 0.00 | 50 | 1017.4 |
| 20260503004221 | 72 | 288 | 7.0 | 14.0 | 0.00 | 0.00 | 0.00 | 50 | 1017.3 |
| 20260503003219 | 72 | 300 | 6.0 | 12.0 | 0.00 | 0.00 | 0.00 | 50 | 1017.4 |
| 20260503002718 | 72 | 293 | 6.0 | 12.0 | 0.00 | 0.00 | 0.00 | 50 | 1017.2 |
| 20260503002220 | 72 | 262 | 6.0 | 12.0 | 0.00 | 0.00 | 0.00 | 50 | 1017.2 |
| 20260503001218 | 72 | 295 | 6.0 | 11.0 | 0.00 | 0.00 | 0.00 | 50 | 1017.3 |
| 20260503000719 | 72 | 271 | 7.0 | 15.0 | 0.00 | 0.00 | 0.00 | 50 | 1017.4 |
| 20260503000218 | 71 | 252 | 7.0 | 15.0 | 0.00 | 0.00 | 0.00 | 51 | 1017.4 |
| 20260502235717 | 72 | 302 | 6.0 | 14.0 | 0.00 | 0.00 | 0.00 | 50 | 1017.4 |
| 20260502235216 | 72 | 270 | 6.0 | 14.0 | 0.00 | 0.00 | 0.00 | 51 | 1017.6 |
| 20260502234712 | 72 | 34 | 7.0 | 15.0 | 0.00 | 0.00 | 0.00 | 52 | 1017.5 |
| 20260502234212 | 71 | 282 | 7.0 | 15.0 | 0.00 | 0.00 | 0.00 | 53 | 1017.6 |
| 20260502233713 | 72 | 260 | 6.0 | 14.0 | 0.00 | 0.00 | 0.00 | 53 | 1017.6 |
| 20260502233213 | 71 | 297 | 8.0 | 16.0 | 0.00 | 0.00 | 0.00 | 54 | 1017.7 |
| 20260502232712 | 70 | 282 | 8.0 | 16.0 | 0.00 | 0.00 | 0.00 | 54 | 1017.7 |
| 20260502232214 | 71 | 290 | 7.0 | 14.0 | 0.00 | 0.00 | 0.00 | 54 | 1017.8 |
| 20260502231715 | 71 | 251 | 7.0 | 14.0 | 0.00 | 0.00 | 0.00 | 55 | 1018.0 |
| 20260502231214 | 71 | 281 | 7.0 | 12.0 | 0.00 | 0.00 | 0.00 | 54 | 1018.0 |
| 20260502230714 | 70 | 309 | 8.0 | 15.0 | 0.00 | 0.00 | 0.00 | 56 | 1018.0 |
| 20260502230210 | 70 | 282 | 9.0 | 15.0 | 0.00 | 0.00 | 0.00 | 54 | 1018.1 |
| 20260502225709 | 70 | 292 | 8.0 | 14.0 | 0.00 | 0.00 | 0.00 | 54 | 1018.2 |
| 20260502225211 | 70 | 309 | 7.0 | 14.0 | 0.00 | 0.00 | 0.00 | 52 | 1018.4 |
| 20260502224708 | 70 | 300 | 8.0 | 13.0 | 0.00 | 0.00 | 0.00 | 52 | 1018.4 |
| 20260502224209 | 69 | 302 | 10.0 | 18.0 | 0.00 | 0.00 | 0.00 | 52 | 1018.6 |
| 20260502223708 | 69 | 189 | 10.0 | 18.0 | 0.00 | 0.00 | 0.00 | 55 | 1018.6 |
| 20260502223209 | 69 | 292 | 8.0 | 16.0 | 0.00 | 0.00 | 0.00 | 56 | 1018.7 |
| 20260502222708 | 68 | 307 | 9.0 | 18.0 | 0.00 | 0.00 | 0.00 | 57 | 1018.8 |
| 20260502222208 | 68 | 309 | 10.0 | 18.0 | 0.00 | 0.00 | 0.00 | 60 | 1018.9 |
| 20260502221704 | 68 | 295 | 10.0 | 17.0 | 0.00 | 0.00 | 0.00 | 60 | 1019.0 |
| 20260502221204 | 68 | 300 | 9.0 | 17.0 | 0.00 | 0.00 | 0.00 | 61 | 1019.0 |
| 20260502220704 | 67 | 283 | 10.0 | 18.0 | 0.00 | 0.00 | 0.00 | 62 | 1019.1 |